This is the latest recevied weather packets stored in our database for station/object KB9ZI. If no packets are shown the sender has not sent any weather packets the latest 10 day(s).
| Time | Temp. | Humidity | Pressure | Rain* | Wind** | Luminosity | Snow |
|---|---|---|---|---|---|---|---|
| 1777840486 | 21.67° C | 33% | 1005.6 hPa | 0 mm | - | - | - |
| 1777840358 | 21.67° C | 32% | 1005.7 hPa | 0 mm | - | - | - |
| 1777840238 | 21.67° C | 35% | 1005.7 hPa | 0 mm | - | - | - |
| 1777840113 | 21.67° C | 32% | 1005.7 hPa | 0 mm | - | - | - |
| 1777840056 | 22.22° C | 32% | 1005.8 hPa | 0 mm | - | - | - |
| 1777839873 | 22.22° C | 32% | 1005.8 hPa | 0 mm | - | - | - |
| 1777839735 | 22.22° C | 34% | 1005.8 hPa | 0 mm | - | - | - |
| 1777839615 | 21.11° C | 34% | 1005.8 hPa | 0 mm | - | - | - |
| 1777839496 | 21.11° C | 34% | 1005.8 hPa | 0 mm | - | - | - |
| 1777839376 | 21.11° C | 34% | 1005.8 hPa | 0 mm | - | - | - |
| 1777839247 | 21.11° C | 34% | 1005.9 hPa | 0 mm | - | - | - |
| 1777839130 | 21.67° C | 35% | 1005.9 hPa | 0 mm | - | - | - |
| 1777839070 | 21.67° C | 34% | 1006 hPa | 0 mm | - | - | - |
| 1777838859 | 21.67° C | 34% | 1006.1 hPa | 0 mm | - | - | - |
| 1777838743 | 21.67° C | 32% | 1006 hPa | 0 mm | - | - | - |
| 1777838613 | 22.22° C | 35% | 1006.2 hPa | 0 mm | - | - | - |
| 1777838493 | 21.67° C | 36% | 1006.1 hPa | 0 mm | - | - | - |
| 1777838375 | 21.67° C | 32% | 1006.1 hPa | 0 mm | - | - | - |
| 1777838239 | 21.67° C | 34% | 1006.2 hPa | 0 mm | - | - | - |
| 1777838112 | 21.67° C | 34% | 1006.2 hPa | 0 mm | - | - | - |
| 1777837986 | 21.67° C | 34% | 1006.3 hPa | 0 mm | - | - | - |
| 1777837923 | 21.67° C | 34% | 1006.2 hPa | 0 mm | - | - | - |
| 1777837744 | 21.67° C | 34% | 1006.2 hPa | 0 mm | - | - | - |
| 1777837623 | 21.67° C | 36% | 1006.3 hPa | 0 mm | - | - | - |
| 1777837504 | 21.67° C | 34% | 1006.3 hPa | 0 mm | - | - | - |
* Rain latest hour (hover to see other rain measurements)
** Current wind speed in m/s (hover to see current wind gust speed)